Theta_e
324 314 309 305 296 293 291 296 301 303 306 309 319 325 323 323 319 313 339 351 356 359 364 364 365 365 364 362 361 361 360 359 359 360 361 360 360 361 362 362 362 362 360 359 357 356 355 353 353
314 311 305 300 292 288 292 299 301 305 309 311 333 333 330 328 331 340 344 354 355 361 362 362 364 364 363 362 361 361 360 359 360 360 361 361 360 360 361 361 361 359 359 358 357 355 354 353 353
319 313 301 294 289 290 292 301 305 307 311 310 320 334 335 331 339 343 352 353 356 359 362 362 364 363 362 361 361 361 360 359 359 361 361 361 360 360 360 360 360 358 356 356 355 354 353 352 353
307 300 299 289 286 292 298 302 303 305 309 311 324 325 335 346 345 350 353 353 353 357 361 363 363 362 361 361 361 360 360 359 359 361 361 361 360 359 358 359 359 358 355 354 354 354 353 353 352
303 295 288 285 287 291 297 302 304 302 304 307 313 324 334 346 351 352 351 351 352 356 361 362 363 362 362 361 361 360 360 359 359 360 361 361 361 359 358 358 358 358 357 355 354 354 355 355 354
295 294 284 288 288 294 297 300 299 299 302 305 314 329 333 347 348 349 349 351 354 356 360 361 363 362 360 361 360 360 359 359 359 359 360 360 360 360 359 357 359 359 358 357 356 356 355 355 356
293 289 285 286 289 292 296 298 298 298 300 303 314 322 336 343 348 349 348 354 355 356 357 359 360 360 361 360 360 359 359 358 358 358 359 359 360 359 359 358 357 358 358 358 357 357 356 355 354
299 294 289 290 291 291 296 297 298 298 302 309 312 323 331 343 349 348 351 351 352 354 356 354 355 358 357 357 360 359 359 358 358 358 358 358 359 359 359 356 357 356 356 357 356 355 355 354 353
302 291 291 293 293 293 297 295 303 307 304 308 321 334 342 347 347 347 346 346 347 350 352 352 352 352 353 357 358 359 359 359 358 358 358 355 350 352 354 354 357 356 356 355 354 353 352 352 352
297 294 294 297 299 295 299 298 300 303 303 319 334 339 343 344 344 342 341 341 342 344 349 352 351 351 351 355 354 353 354 353 352 352 350 347 347 347 352 353 356 356 355 355 354 353 353 352 343
294 295 301 301 303 300 300 301 303 301 300 311 332 337 340 340 340 340 340 341 341 343 348 350 351 351 352 352 351 352 352 350 350 349 346 343 345 345 347 343 348 346 353 347 349 346 345 342 340
291 297 303 303 304 302 302 303 302 302 303 306 336 340 340 339 337 338 338 339 339 341 344 347 349 350 349 351 349 349 348 347 345 346 344 339 335 339 339 341 343 344 345 344 342 340 340 340 339
294 296 297 301 304 304 304 303 302 302 307 306 330 336 337 337 338 339 339 339 338 337 340 343 344 342 347 347 342 344 343 344 342 343 342 338 335 336 337 339 341 342 342 341 340 338 340 339 338
296 297 297 299 297 300 302 303 302 306 306 305 314 327 331 333 336 337 337 336 337 337 337 340 339 339 342 339 338 339 338 339 339 341 341 337 336 336 336 335 340 340 341 340 340 339 339 338 338
298 294 298 298 299 298 300 298 300 306 304 303 305 311 319 330 331 332 335 337 338 337 337 336 338 339 336 335 337 338 339 339 339 341 341 339 336 339 341 340 342 342 342 341 340 339 338 335 336
291 293 289 297 299 301 299 293 302 304 302 301 304 303 311 311 325 327 336 341 340 338 337 340 346 340 339 337 340 341 341 341 340 341 342 342 340 350 347 345 343 348 343 340 339 340 338 338 337
290 286 289 293 299 299 298 295 302 303 301 300 301 302 304 304 306 311 333 341 341 340 340 342 344 343 344 343 347 348 345 344 345 344 344 345 346 351 347 346 346 346 344 342 340 339 340 338 339
285 288 292 292 297 298 297 296 300 302 299 300 300 301 302 303 305 306 341 342 341 340 340 339 341 346 350 352 351 352 351 348 351 348 347 348 350 351 346 346 346 344 341 340 340 339 340 339 338
289 290 291 295 299 296 296 297 298 300 298 297 298 300 300 302 303 308 342 343 340 338 336 338 339 342 344 342 347 348 345 348 347 352 351 352 350 350 347 345 343 343 341 341 341 340 336 334 335
289 287 288 295 299 296 296 294 300 298 298 298 298 299 300 301 302 305 339 339 339 337 336 340 343 340 336 337 344 345 343 343 346 349 350 350 349 349 346 344 344 343 340 339 338 336 334 333 332
288 287 289 290 296 298 295 294 295 300 302 300 300 301 302 303 301 304 333 338 336 336 337 338 341 343 342 347 347 344 342 341 342 342 345 346 348 348 346 343 340 339 338 334 333 332 330 327 328
284 292 293 292 292 287 297 287 291 298 298 299 299 299 302 301 301 303 331 338 338 334 332 337 341 339 338 338 341 342 339 337 340 340 340 341 343 341 340 336 335 333 329 326 326 328 326 324 320
287 292 292 291 291 290 293 288 293 296 295 299 298 300 302 302 302 304 339 340 339 333 332 337 339 332 331 333 332 337 337 331 341 338 334 333 333 334 332 328 325 323 321 318 316 318 319 320 317
293 290 290 292 290 285 291 289 288 292 297 298 299 300 301 301 302 315 339 342 340 338 336 336 336 336 331 335 334 337 336 330 335 333 329 327 326 325 323 321 319 317 315 314 313 314 313 312 311
292 286 281 281 282 283 292 291 289 296 301 299 299 300 301 303 301 332 335 335 333 330 332 336 340 339 339 341 340 341 340 340 335 332 326 324 321 319 317 316 315 315 315 314 313 313 312 312 310
288 288 283 280 281 282 293 287 292 298 302 301 301 301 302 301 315 335 335 336 334 329 326 335 336 331 331 333 332 331 331 331 330 328 324 321 318 317 316 315 314 314 315 313 312 311 313 310 310
290 284 291 285 287 285 289 292 298 299 299 300 300 301 301 302 331 334 334 335 328 326 331 329 327 327 327 327 325 325 324 322 322 322 322 318 315 316 314 314 313 313 314 312 310 309 309 310 309
289 293 284 285 281 282 286 288 289 294 296 299 297 298 317 326 329 330 331 331 330 328 327 325 324 323 322 321 321 321 319 319 318 318 314 314 312 311 311 311 310 311 311 310 309 308 309 308 308
289 289 291 289 288 284 281 286 302 300 297 296 308 316 322 323 325 325 325 326 326 324 321 320 319 320 318 318 319 319 317 315 315 314 311 310 310 310 311 312 311 309 307 306 305 306 307 306 306
292 291 291 284 285 290 287 289 306 305 305 314 316 318 320 321 322 323 323 321 319 318 318 317 316 317 318 317 315 314 312 311 310 310 309 309 309 310 311 309 307 306 304 303 304 304 305 305 305
Wind_Speed
5 4 1 4 3 4 5 11 4 7 6 2 7 9 14 11 12 8 1 17 21 17 14 14 18 19 19 18 18 18 17 18 19 18 18 17 16 16 16 14 13 13 13 12 11 10 10 10 10
2 2 4 2 5 3 8 4 20 10 8 7 9 10 4 5 3 12 17 18 24 19 13 14 19 20 20 19 18 18 18 18 18 18 17 16 16 15 15 14 13 14 13 12 11 10 9 9 8
2 2 4 5 5 9 8 9 18 2 10 2 8 1 2 4 12 7 19 23 19 17 15 15 19 20 20 20 19 19 19 19 18 18 17 16 15 14 14 13 12 13 13 12 11 10 9 8 7
1 4 4 3 9 10 10 7 3 7 14 4 6 3 2 3 3 9 22 24 20 16 15 18 21 20 20 20 20 19 19 19 19 18 17 16 15 14 13 12 11 11 11 11 11 10 9 8 7
2 3 2 4 9 8 11 18 16 10 10 15 3 5 2 4 19 23 23 20 21 15 14 15 20 20 19 19 19 19 19 18 18 17 16 15 15 13 12 11 11 11 11 10 10 9 7 7 5
0 3 2 13 9 11 15 15 8 6 12 20 4 4 4 18 23 17 19 17 19 18 15 14 18 20 20 19 18 17 18 18 17 17 16 15 14 13 12 10 9 9 9 8 8 7 6 5 3
5 4 6 6 8 16 17 6 14 6 12 19 6 6 8 18 17 18 18 16 15 17 16 11 12 15 18 18 19 18 17 18 17 16 15 14 12 11 10 9 8 7 7 6 6 5 5 4 4
5 3 5 8 13 16 7 5 2 6 16 23 10 9 16 16 22 17 15 15 14 14 14 14 13 11 10 10 16 17 16 15 15 14 14 13 12 10 9 8 7 7 6 5 5 4 4 5 6
1 4 14 19 12 9 8 4 5 4 11 15 6 12 25 24 23 19 15 12 11 12 13 11 13 13 12 8 10 12 16 15 13 11 11 9 4 6 7 7 8 8 8 7 8 7 8 8 9
7 10 13 4 14 6 16 7 7 8 11 6 13 15 24 25 23 23 19 15 14 13 12 13 12 14 12 10 11 6 8 5 5 5 6 4 5 5 7 8 11 11 11 10 9 9 9 8 4
6 22 18 11 12 8 15 15 5 8 11 8 21 25 24 25 20 19 19 20 17 18 12 11 12 13 11 9 7 4 5 4 4 5 5 5 4 4 3 3 3 2 6 3 5 4 3 4 3
8 16 19 5 8 7 18 7 10 7 13 7 19 23 23 26 22 20 20 18 17 18 17 15 12 11 7 8 6 5 5 4 4 5 6 4 2 2 2 2 3 4 3 4 4 2 4 6 6
13 12 7 12 14 19 13 15 7 17 19 5 13 21 21 19 23 20 20 18 17 17 16 16 15 9 9 8 5 5 5 5 5 4 5 4 4 5 4 4 3 4 4 4 4 5 5 5 5
6 5 10 13 13 11 20 18 5 21 9 1 9 16 18 18 19 15 17 16 16 13 15 12 14 13 12 8 8 6 5 5 6 6 7 8 5 5 5 5 5 4 4 3 4 4 4 5 4
15 16 15 13 18 21 3 16 26 21 9 11 8 10 9 17 15 15 17 19 16 12 14 11 9 9 11 11 7 7 8 7 7 7 7 8 8 7 6 5 5 5 4 6 2 4 1 3 3
4 5 13 23 14 23 12 23 25 10 9 11 6 7 12 7 8 7 15 19 18 19 18 13 11 13 11 11 10 8 7 6 6 5 5 7 6 6 6 5 3 4 4 3 3 2 2 4 4
4 10 14 15 14 9 19 21 20 10 11 11 8 7 11 9 7 7 11 19 21 21 20 16 13 15 11 10 7 7 8 7 7 6 6 7 8 6 5 4 3 5 4 3 2 2 2 2 3
13 10 15 15 14 12 21 15 9 10 10 11 8 8 8 10 10 8 17 17 17 21 23 16 7 6 9 8 6 4 5 5 6 7 8 9 7 7 5 4 5 4 3 3 1 1 1 1 3
17 16 17 10 12 12 23 13 11 8 6 7 8 8 9 10 6 11 16 17 18 16 18 17 14 9 6 2 5 6 5 4 2 4 7 8 7 7 7 4 5 3 3 2 1 2 4 3 4
17 20 20 15 15 13 17 10 16 9 7 8 10 9 11 8 7 6 15 16 18 19 16 16 15 10 7 3 3 4 4 3 3 3 4 4 4 5 7 7 5 4 4 6 6 5 3 2 4
20 16 13 13 16 19 6 15 9 16 12 7 8 11 12 13 9 7 15 18 16 15 16 15 15 13 8 9 3 5 2 2 3 3 4 2 5 4 7 8 6 5 4 4 5 5 4 2 2
17 12 13 17 12 11 16 12 9 16 16 12 10 10 14 9 8 7 14 15 17 15 10 12 11 8 6 5 4 6 4 3 1 4 4 3 8 5 9 9 8 8 5 7 5 4 4 3 4
13 12 17 15 16 9 12 8 15 10 12 20 13 12 14 11 12 9 17 18 18 18 18 15 11 6 7 8 8 5 3 2 1 3 11 9 10 10 9 8 9 8 6 5 7 5 6 4 3
11 14 17 16 12 12 15 8 7 9 22 15 8 10 12 10 11 10 15 17 16 15 14 12 12 9 8 6 4 2 15 8 7 6 8 7 6 6 7 9 8 7 6 7 4 4 6 4 4
6 12 3 6 7 6 6 1 9 18 19 12 11 11 11 13 9 16 19 17 17 17 15 12 12 10 9 10 10 12 12 14 12 9 8 7 6 5 5 7 7 5 5 6 5 4 4 4 3
10 8 3 4 5 5 4 7 9 13 15 12 11 13 12 10 11 18 20 19 19 15 11 9 8 10 8 11 10 9 12 6 6 7 8 5 6 6 6 7 6 6 6 5 4 3 3 4 3
6 9 4 5 3 5 7 5 6 6 8 10 12 11 12 12 16 19 16 16 16 12 11 15 14 13 13 11 10 10 10 11 14 9 6 8 5 6 6 7 6 6 5 5 6 5 6 5 4
6 13 5 4 3 4 5 4 5 9 10 14 10 10 16 21 20 18 18 18 15 16 16 18 17 17 12 14 14 11 12 13 13 8 9 7 6 6 7 7 7 7 8 8 7 5 6 6 4
4 4 4 3 3 3 6 6 6 8 9 12 12 16 24 23 20 20 20 18 20 18 18 17 17 15 13 13 15 12 10 10 10 8 7 6 7 6 8 10 10 9 8 7 6 6 6 5 5
5 8 9 4 5 3 2 3 11 10 18 23 21 22 25 25 22 20 22 20 19 18 16 18 16 16 13 12 14 11 10 10 10 7 6 7 8 9 11 10 10 8 8 7 6 6 5 5 5
Wind_Direction
271 326 13 42 79 72 247 246 276 265 292 105 166 146 161 153 171 206 46 149 135 139 149 150 146 139 135 134 131 128 125 123 118 115 112 111 111 110 107 107 109 113 113 111 109 108 105 103 103
302 265 37 78 128 174 249 230 254 232 262 323 326 111 102 215 150 113 125 147 141 138 149 150 150 143 139 137 136 134 131 128 124 122 120 119 117 116 115 117 119 122 122 120 119 115 109 105 101
250 195 97 156 183 205 227 221 246 182 264 345 174 4 58 209 115 149 134 137 135 140 145 153 149 145 143 144 143 141 138 135 132 130 130 127 125 124 122 125 128 130 131 131 130 127 124 121 119
137 17 355 171 226 253 229 252 127 321 305 189 90 114 60 291 110 134 134 135 136 140 142 151 149 148 148 149 148 147 144 141 138 137 137 134 132 129 127 130 134 135 136 136 136 138 140 140 141
43 75 222 232 238 257 256 254 273 282 289 284 120 210 152 44 113 133 137 139 134 139 143 149 150 148 150 152 151 149 146 144 142 141 142 138 135 135 138 139 141 143 144 146 147 147 146 149 159
142 119 161 230 234 245 259 258 266 232 269 279 126 156 153 136 133 143 142 139 141 137 144 150 152 151 153 155 153 153 150 145 145 146 147 145 144 146 143 143 145 146 143 148 149 144 149 159 183
159 123 217 206 236 253 247 244 246 252 258 262 172 182 140 147 140 141 140 133 137 133 141 145 148 154 157 157 155 156 153 150 149 149 149 149 147 144 144 145 149 147 146 148 155 161 166 195 231
165 127 237 212 226 254 247 237 331 228 262 258 231 174 168 169 145 136 129 132 132 135 138 149 155 152 154 160 159 157 152 146 147 149 152 154 152 149 146 149 149 150 162 173 180 191 200 227 246
227 205 232 225 203 237 282 276 256 276 260 276 194 161 160 149 139 127 131 129 130 141 144 143 154 161 166 151 158 149 149 145 143 144 146 140 138 145 151 161 168 176 183 192 202 207 216 225 239
181 223 231 194 217 234 264 252 333 330 332 320 95 123 134 138 143 145 154 151 150 153 156 156 152 158 159 158 153 135 140 127 129 138 147 150 157 167 172 184 189 192 195 201 211 220 227 236 244
208 233 230 259 235 242 262 273 304 311 290 246 144 147 147 144 155 155 158 164 163 161 159 158 147 151 149 146 150 140 144 137 138 152 159 171 175 187 176 197 208 183 214 212 234 263 278 286 275
255 243 235 264 278 260 254 314 281 239 264 292 157 157 158 154 159 166 160 161 162 166 159 147 147 146 132 144 150 142 144 153 159 172 172 166 162 194 223 209 204 202 220 221 230 232 247 255 251
249 249 255 248 248 270 281 259 297 277 282 262 189 160 166 169 164 169 168 162 161 166 153 155 148 136 137 147 142 152 165 168 173 179 190 164 173 191 195 222 221 209 207 224 222 218 231 251 257
293 290 267 259 261 255 254 274 267 266 285 247 215 169 172 168 174 156 168 158 162 152 152 142 147 143 144 154 156 162 166 182 177 180 186 181 186 198 197 191 215 240 227 218 219 221 239 251 251
268 283 277 262 239 247 266 275 240 252 258 255 154 192 178 182 172 165 151 160 144 134 129 135 130 137 154 161 165 173 179 175 185 195 192 185 183 203 182 175 195 220 215 238 234 226 192 234 216
309 247 244 250 234 241 167 259 252 225 226 232 180 196 169 184 191 129 137 139 133 130 136 142 154 163 167 174 174 176 181 180 189 181 186 191 192 198 166 166 154 118 99 122 156 163 22 13 356
222 247 236 239 226 229 189 239 264 206 207 222 183 199 155 159 123 105 115 136 139 137 141 156 163 169 175 170 164 174 185 180 186 178 187 194 184 187 150 141 95 103 100 85 38 38 69 8 329
241 237 247 236 231 228 237 240 268 190 182 199 201 180 205 167 158 132 126 142 145 148 152 161 142 140 162 146 136 147 160 186 182 189 185 193 189 177 149 111 115 116 109 86 89 86 32 8 321
245 263 258 265 218 209 239 234 233 225 181 205 197 190 211 184 165 134 140 151 151 154 155 166 167 170 153 119 169 164 154 147 114 174 178 176 180 158 138 105 103 101 80 44 21 49 47 20 348
262 246 258 291 241 215 231 241 211 216 209 191 192 199 208 193 130 162 142 149 162 163 171 161 173 165 162 148 218 37 84 91 172 111 125 208 196 148 118 123 113 103 90 65 50 43 19 359 24
242 249 249 256 284 237 219 238 215 216 201 196 212 189 201 195 161 192 151 155 155 155 171 170 170 168 171 186 142 110 59 356 80 56 79 117 127 110 109 98 94 82 84 80 59 51 49 351 315
242 249 273 247 268 247 208 224 218 198 206 199 204 198 209 173 170 189 145 148 154 155 157 164 162 165 195 216 170 127 175 188 72 135 90 44 54 80 90 93 92 84 78 64 58 41 42 42 18
230 249 263 293 250 271 220 194 223 184 198 211 203 203 210 181 178 164 144 155 156 148 162 172 157 141 214 221 183 125 181 178 6 74 95 96 89 71 63 64 75 72 65 60 55 42 50 44 67
191 227 258 258 272 227 240 168 207 182 202 204 191 199 195 179 193 129 145 145 145 147 161 171 173 179 200 237 187 179 158 216 204 154 116 102 95 84 75 79 77 71 69 57 53 51 56 63 65
188 175 219 190 216 217 240 347 224 208 210 174 171 194 196 185 145 135 134 142 138 150 150 152 162 175 188 188 181 171 149 160 163 140 105 114 102 86 79 82 71 70 75 61 51 54 54 54 55
182 127 232 164 156 177 178 211 241 211 195 170 166 180 184 158 129 142 145 143 138 142 131 131 120 100 81 102 102 101 104 117 87 96 111 107 97 95 84 83 86 86 78 63 52 49 43 32 29
145 150 189 301 231 96 160 286 310 192 157 153 177 156 178 105 129 133 131 130 129 109 94 91 89 76 83 81 78 85 89 97 105 97 99 98 109 93 83 79 80 75 97 59 43 30 24 30 11
160 146 153 224 207 115 159 189 223 182 176 174 149 134 106 116 119 120 115 109 97 94 94 90 86 82 84 85 85 77 80 81 86 92 85 83 88 85 86 79 63 59 50 44 51 38 22 30 6
134 101 126 268 220 153 130 225 350 282 168 149 117 118 120 122 115 111 110 106 106 101 99 95 91 89 80 79 83 80 75 86 83 82 87 94 89 88 68 73 71 59 49 37 39 24 24 19 7
164 159 146 150 277 342 170 293 331 310 135 125 124 119 117 116 114 111 106 107 102 102 102 99 100 97 92 90 91 88 82 82 83 79 76 74 71 64 84 78 74 62 48 32 30 20 359 2 358